Temperature
7 5 5 6 6 7 7 7 7 7 7 6 5 5 5 6 5 5 5 5 5 6 6 6 6 6 6 6 6 6 6 6 6 6 6 5 5 5 5 5 5 5 5 5
5 5 6 6 6 7 7 6 6 6 6 6 4 4 4 4 4 5 5 5 5 5 5 6 6 6 6 6 5 5 5 5 5 5 5 5 5 5 5 5 5 5 5 5
6 5 6 6 6 6 6 6 5 5 5 4 4 4 4 4 4 5 5 5 5 5 5 5 5 5 5 5 5 5 5 5 5 5 4 4 4 4 4 4 4 4 4 4
5 5 5 5 5 6 5 5 5 5 4 3 4 4 4 3 3 3 4 4 4 5 5 5 5 5 5 5 5 4 4 4 4 4 4 4 4 4 4 4 4 4 4 4
4 4 5 5 5 5 4 5 4 4 3 3 3 3 3 3 3 3 3 4 4 4 4 4 4 4 4 4 4 4 4 4 4 4 3 3 3 3 3 3 3 3 3 3
3 4 4 4 4 4 4 3 3 2 2 3 3 2 3 2 3 3 3 3 4 4 4 4 4 4 4 4 4 3 3 3 3 3 3 3 3 3 3 3 3 3 3 3
3 3 3 4 4 4 3 3 3 3 2 3 2 2 3 2 2 2 2 3 3 3 3 3 3 3 3 3 3 3 3 3 3 3 2 2 2 2 2 2 2 2 2 2
3 3 3 3 3 3 3 3 4 4 3 3 2 2 2 1 1 2 2 3 3 2 3 3 3 3 2 2 2 2 2 2 2 2 2 2 2 1 1 2 2 1 2 2
3 3 2 2 3 3 3 2 2 2 1 2 2 1 2 1 0 0 0 1 1 2 2 2 2 2 2 2 2 2 2 2 2 2 1 1 1 1 1 1 1 1 1 1
2 1 1 1 2 2 2 1 1 1 2 3 2 2 2 1 0 -0 -1 -0 1 1 1 1 2 2 2 2 1 1 1 1 1 1 1 1 0 0 0 0 0 0 0 0
1 1 0 0 0 1 1 1 0 0 1 2 2 2 1 0 -0 -1 -1 -0 0 1 1 1 1 1 1 1 1 1 1 1 0 0 0 -0 -0 -0 -0 -0 -0 -0 -0 -0
-0 -1 -1 -1 -1 -1 -0 -0 -0 1 0 -0 0 1 0 -1 -1 -1 -1 -0 0 0 0 1 1 1 1 0 0 0 0 -0 -0 -0 -1 -1 -1 -1 -1 -1 -1 -1 -1 -1
-1 -1 -0 0 -0 -1 -1 -1 -2 -1 -1 -2 -0 1 -1 -2 -2 -1 -1 -1 -1 -0 -0 -0 0 0 -0 -0 -1 -1 -1 -1 -1 -1 -1 -1 -1 -1 -1 -1 -1 -1 -1 -1
-0 -2 -0 1 1 -1 -2 -2 -2 -2 -1 -2 -1 0 -0 -2 -2 -2 -1 -1 -1 -1 -1 -1 -1 -1 -1 -1 -1 -1 -1 -1 -1 -1 -1 -1 -2 -2 -2 -2 -2 -2 -2 -2
-1 -2 -3 -2 -2 -2 -2 -2 -3 -2 -2 -1 -1 -1 -1 -2 -3 -2 -2 -2 -2 -2 -2 -2 -2 -2 -2 -2 -2 -2 -2 -2 -2 -2 -2 -2 -2 -2 -2 -2 -2 -2 -2 -2
-3 -3 -3 -3 -3 -3 -2 -2 -2 -2 -2 -3 -2 -2 -2 -2 -2 -3 -3 -3 -3 -3 -3 -3 -3 -2 -2 -2 -2 -3 -3 -3 -3 -3 -3 -3 -3 -3 -3 -3 -3 -3 -3 -3
-4 -4 -3 -3 -4 -3 -2 -3 -3 -4 -4 -3 -2 -2 -3 -4 -4 -3 -3 -3 -3 -3 -3 -3 -3 -3 -3 -3 -3 -3 -3 -3 -3 -3 -3 -3 -3 -3 -3 -3 -3 -3 -3 -3
-5 -4 -4 -4 -3 -2 -1 -3 -4 -4 -4 -5 -4 -4 -4 -4 -3 -3 -3 -3 -3 -3 -3 -3 -4 -3 -3 -4 -4 -4 -4 -4 -4 -4 -4 -4 -4 -4 -4 -4 -4 -4 -4 -4
-5 -4 -5 -5 -4 -3 -3 -4 -5 -4 -4 -5 -5 -5 -5 -5 -5 -4 -3 -3 -3 -3 -4 -4 -4 -4 -4 -4 -4 -4 -4 -4 -5 -5 -5 -5 -5 -5 -5 -5 -5 -5 -5 -5
-6 -5 -5 -5 -4 -3 -2 -4 -5 -4 -4 -4 -5 -5 -6 -6 -6 -5 -3 -4 -4 -4 -4 -4 -4 -5 -5 -5 -5 -5 -5 -5 -5 -5 -5 -5 -6 -6 -6 -6 -6 -6 -6 -6
-5 -6 -5 -5 -5 -4 -4 -6 -5 -3 -2 -4 -4 -5 -6 -6 -5 -4 -4 -5 -5 -5 -5 -5 -5 -5 -5 -5 -5 -5 -5 -6 -6 -6 -6 -6 -6 -7 -7 -7 -7 -7 -7 -7
-5 -6 -6 -6 -5 -3 -5 -6 -5 -4 -4 -4 -4 -4 -5 -5 -5 -5 -5 -5 -5 -5 -5 -5 -5 -6 -6 -6 -6 -6 -6 -6 -7 -7 -7 -7 -7 -7 -7 -7 -8 -8 -8 -8
-6 -5 -5 -5 -3 -4 -5 -4 -4 -3 -4 -4 -4 -4 -4 -5 -6 -6 -6 -6 -6 -6 -6 -6 -6 -6 -6 -6 -7 -7 -7 -7 -7 -8 -8 -8 -8 -8 -8 -8 -8 -8 -8 -9
-7 -8 -7 -7 -6 -6 -5 -4 -4 -4 -4 -4 -4 -5 -5 -5 -6 -6 -6 -6 -6 -6 -6 -7 -7 -7 -7 -7 -7 -8 -8 -8 -8 -8 -9 -9 -9 -9 -9 -9 -9 -9 -9 -9
-7 -8 -8 -7 -7 -7 -6 -5 -4 -4 -4 -5 -5 -5 -6 -6 -6 -7 -7 -7 -7 -7 -7 -7 -8 -8 -8 -8 -8 -8 -9 -9 -9 -9 -9 -9 -10 -10 -10 -10 -10 -10 -10 -10
-8 -8 -7 -6 -6 -7 -5 -4 -5 -5 -5 -5 -6 -6 -6 -7 -7 -7 -7 -7 -8 -8 -8 -8 -8 -8 -8 -9 -9 -9 -9 -10 -10 -10 -10 -10 -10 -10 -10 -10 -10 -11 -10 -10
Wind_Speed
2 3 4 7 7 5 4 4 5 4 2 3 7 9 8 6 6 6 6 6 6 6 4 4 4 4 4 4 3 3 3 2 2 2 2 1 1 0 0 1 1 2 2 2
3 3 6 3 3 2 3 3 3 3 2 3 5 8 7 6 7 7 8 8 8 5 3 3 4 4 4 4 4 3 3 3 3 2 2 1 1 1 0 1 0 1 1 2
5 4 3 2 2 2 3 5 5 3 3 1 2 6 4 3 3 4 5 6 6 7 6 5 4 4 4 4 5 4 4 3 3 2 1 1 1 1 0 1 1 1 2 1
2 3 1 2 3 4 5 4 3 2 1 3 1 4 6 4 3 5 6 5 6 5 5 5 5 4 4 4 3 3 3 3 3 3 3 3 2 2 2 2 2 2 2 2
2 1 1 4 4 4 4 1 1 2 2 2 2 3 7 2 5 7 6 6 5 5 5 5 5 5 4 3 3 3 2 2 2 3 4 3 2 1 1 1 1 2 2 2
1 1 1 3 1 2 2 3 3 2 2 4 6 6 7 5 7 5 4 5 5 4 4 4 3 3 2 2 2 2 3 2 2 2 3 4 3 2 1 1 2 2 1 2
2 2 1 1 1 2 3 4 2 3 1 6 3 5 8 5 4 4 4 4 3 4 4 4 3 3 3 3 3 3 3 3 2 2 2 3 4 4 4 3 3 3 2 2
2 4 3 1 3 4 3 5 5 4 5 4 2 7 6 3 1 0 1 2 3 3 3 4 5 5 4 4 3 3 3 3 3 3 3 3 3 3 3 4 3 4 3 3
5 4 2 1 0 3 4 4 3 4 0 3 6 6 5 1 2 1 0 0 2 3 3 3 4 4 4 4 4 4 4 3 3 3 2 2 3 3 3 3 3 3 3 3
4 2 2 2 1 2 2 4 4 4 3 5 5 5 5 5 5 3 2 3 3 2 2 2 2 3 4 4 3 3 3 4 3 3 3 2 3 3 3 3 4 3 3 3
3 3 2 1 3 4 2 2 3 3 4 4 4 6 4 5 5 5 5 4 3 3 2 3 3 2 2 1 2 3 3 2 2 3 3 3 3 3 3 3 3 3 3 3
3 4 2 5 2 1 2 4 6 4 5 4 4 6 3 2 2 3 4 3 2 2 2 2 2 1 1 1 1 2 2 2 3 3 2 3 3 3 3 3 3 3 3 3
4 4 1 3 2 1 2 3 4 3 3 4 5 7 1 2 1 1 2 3 2 2 2 2 2 1 2 2 2 2 2 2 2 2 2 3 3 3 4 4 3 3 3 3
4 4 6 8 5 4 4 4 5 5 4 6 9 9 6 5 4 4 3 3 3 3 2 2 2 2 2 3 3 3 3 2 2 2 2 3 4 4 4 3 3 3 3 3
4 4 4 5 4 3 6 7 8 10 9 9 9 9 10 7 6 5 4 3 3 3 3 3 3 3 3 3 3 3 3 2 2 2 2 3 4 3 3 3 3 3 3 3
3 3 1 3 3 4 7 9 10 11 10 10 10 12 9 5 3 4 4 4 4 4 4 4 4 3 3 3 3 3 3 3 2 3 3 3 3 3 3 3 3 3 3 3
4 4 2 4 3 3 8 9 9 6 7 8 12 11 5 4 5 5 5 5 5 5 4 4 4 4 3 3 3 3 3 2 2 3 3 3 3 3 3 3 3 3 4 3
6 5 3 1 1 6 7 1 6 7 7 8 7 6 5 6 5 5 4 5 4 4 4 4 4 3 2 2 2 2 2 2 2 3 3 3 3 3 3 3 3 3 3 3
3 6 3 2 3 8 7 3 5 6 7 8 10 8 5 2 3 4 3 3 4 4 4 4 3 3 2 2 2 1 2 2 2 3 3 3 3 3 3 3 4 3 3 3
3 3 4 3 4 7 7 2 3 4 6 5 7 7 3 2 1 5 2 2 3 3 2 2 2 2 2 2 1 1 2 2 3 4 4 3 3 3 4 4 3 3 3 3
3 2 5 5 6 9 5 2 5 4 7 2 5 5 5 6 6 3 2 3 3 3 3 2 2 2 2 2 1 1 2 3 4 4 3 3 3 3 3 3 2 2 2 2
8 7 7 5 6 9 4 6 8 7 1 2 3 3 4 5 4 3 3 3 2 2 3 2 2 3 2 1 1 2 3 4 3 3 3 3 3 3 2 2 2 2 2 2
7 8 6 9 8 3 6 6 4 2 3 3 3 3 4 4 4 4 3 3 3 3 3 2 2 3 3 2 1 3 4 3 3 2 3 3 3 3 2 2 2 2 1 2
4 2 3 5 7 4 5 4 3 3 4 4 3 3 4 4 4 4 4 3 3 3 3 2 2 3 3 3 3 3 3 3 2 2 3 3 2 3 2 2 2 2 2 2
5 5 4 6 6 4 5 6 6 4 3 3 3 3 4 4 5 5 4 4 4 4 3 2 3 4 4 3 3 3 3 1 1 2 2 2 2 2 2 2 2 3 3 4
5 6 7 7 5 5 6 4 4 4 5 5 4 4 4 4 5 5 4 4 4 4 3 3 4 4 4 3 3 3 2 1 1 2 2 2 2 2 2 2 3 5 4 5
Wind_Direction
75 98 195 208 204 202 187 200 233 247 228 207 235 253 256 233 206 210 207 201 205 216 217 191 179 167 156 152 158 163 153 148 133 140 149 161 193 193 77 84 134 129 121 121
65 225 230 220 203 200 205 225 245 278 283 232 259 268 259 232 215 207 204 205 206 206 199 185 179 171 170 170 173 171 169 168 168 169 179 190 191 204 226 354 337 155 144 143
183 225 225 183 189 197 228 212 219 244 321 314 317 296 263 253 223 211 206 204 200 196 195 188 183 186 179 181 188 184 184 179 173 138 108 86 66 39 6 295 276 271 216 194
196 263 194 173 215 192 235 224 201 208 291 274 167 276 265 235 247 230 220 206 203 197 189 190 186 191 192 192 182 181 186 181 175 149 151 150 166 205 238 242 247 266 239 223
237 225 188 202 218 186 204 199 201 208 186 283 248 218 274 233 237 239 226 211 208 198 188 193 190 193 197 185 177 182 174 176 179 168 171 172 185 218 255 252 237 245 263 232
247 297 190 197 238 181 159 66 44 61 109 252 222 194 265 226 219 227 225 212 203 193 188 194 189 176 180 181 177 180 179 181 172 168 180 186 194 210 232 249 237 248 260 255
326 313 325 89 85 40 87 97 27 345 308 247 205 204 248 243 219 202 212 216 192 181 183 183 185 191 193 194 194 193 191 196 186 177 193 206 206 207 218 225 229 235 240 254
185 259 242 223 188 189 201 161 170 209 234 272 259 231 249 253 282 246 202 197 183 187 194 199 199 198 201 201 201 196 201 206 194 193 214 218 213 219 228 231 229 228 231 238
182 231 333 339 319 153 163 201 179 144 148 264 258 274 295 287 320 313 37 91 214 212 212 215 207 199 201 201 205 201 207 216 211 206 215 226 225 230 242 244 237 234 242 246
158 217 282 316 30 15 152 146 114 150 190 250 273 258 248 249 246 251 254 249 255 243 249 249 230 213 208 203 207 204 207 220 225 216 215 232 235 237 240 241 242 240 245 241
132 162 301 337 202 200 145 149 151 167 183 193 253 262 234 220 221 225 233 237 238 241 246 257 260 246 231 221 202 204 213 215 224 226 227 235 239 239 236 234 244 244 243 234
138 137 232 252 267 307 202 191 162 179 226 209 223 266 279 220 225 209 233 250 262 255 270 281 272 262 247 257 252 235 232 226 226 224 230 239 243 237 234 242 247 250 244 245
137 130 60 333 320 322 246 217 188 159 152 193 210 259 318 5 334 255 246 263 275 281 293 313 318 262 239 250 260 258 255 251 246 219 222 243 247 241 240 244 245 245 241 248
127 158 192 212 222 190 221 224 190 165 201 227 231 253 278 291 289 288 279 267 269 274 278 285 290 267 253 251 253 255 264 264 256 229 221 239 249 247 244 247 245 239 240 235
122 194 222 251 266 231 229 232 208 210 215 220 243 244 257 260 249 255 261 262 268 283 286 281 280 271 260 266 267 262 267 272 258 238 240 251 261 257 250 250 253 246 244 245
120 173 193 273 276 265 264 252 225 228 232 238 257 265 263 277 263 269 262 253 261 276 282 287 286 282 264 263 269 271 271 276 258 235 248 262 261 255 250 250 255 251 244 245
157 148 167 251 298 340 272 238 208 210 215 204 231 246 265 275 259 252 250 246 253 266 284 291 286 277 272 270 273 264 266 275 265 253 255 257 254 255 255 257 254 252 245 236
157 151 163 216 49 239 244 194 187 204 232 217 229 249 245 249 263 264 247 236 253 272 282 290 292 290 291 290 289 292 289 272 261 264 265 259 253 256 256 250 249 254 253 240
162 154 158 169 231 272 284 228 176 193 255 225 228 249 265 305 321 287 257 237 249 265 275 279 279 282 293 291 294 316 311 293 280 274 271 268 255 254 253 251 253 251 250 255
81 128 153 171 206 242 251 201 153 123 275 237 208 229 233 121 254 267 280 307 298 297 295 296 302 315 307 302 305 298 294 299 286 285 283 279 263 250 251 252 253 252 253 255
144 166 192 202 229 258 250 172 133 175 249 225 194 206 189 203 226 248 284 302 298 301 302 303 300 293 290 297 303 281 283 278 283 294 300 295 283 268 256 255 251 243 250 253
179 181 195 181 216 251 191 148 184 217 210 184 200 203 205 224 243 256 274 280 289 307 313 308 299 293 301 296 271 283 284 288 299 302 306 306 304 298 291 264 263 247 229 243
202 195 193 198 218 249 175 194 216 188 204 218 216 230 206 224 242 255 266 267 275 282 291 301 294 298 309 304 264 268 288 299 301 305 304 307 310 308 305 284 275 267 241 238
248 213 199 247 259 251 232 244 250 228 230 237 228 227 212 224 238 249 256 265 272 282 287 295 296 288 294 299 295 279 288 293 292 296 301 306 312 318 320 307 289 276 254 248
222 180 209 252 273 295 259 233 238 247 241 243 254 239 225 222 241 243 250 257 263 275 283 276 270 271 278 289 291 296 299 289 295 296 299 304 306 302 313 314 299 287 262 253
205 191 197 235 231 221 252 238 224 226 239 236 238 255 252 231 239 245 249 253 259 268 276 277 275 276 279 283 289 297 298 279 259 290 298 297 302 304 308 311 320 319 308 300
Height
1504 1509 1511 1510 1510 1510 1512 1514 1515 1513 1511 1514 1513 1511 1508 1507 1508 1507 1508 1509 1509 1510 1512 1513 1514 1515 1516 1516 1518 1518 1519 1520 1521 1521 1522 1522 1523 1523 1524 1524 1525 1525 1525 1525
1509 1511 1508 1507 1508 1509 1511 1514 1514 1513 1512 1513 1513 1510 1505 1503 1503 1503 1504 1505 1506 1508 1509 1510 1511 1511 1512 1513 1514 1516 1516 1517 1518 1518 1519 1520 1520 1520 1521 1522 1522 1522 1522 1522
1506 1508 1506 1507 1509 1510 1511 1513 1514 1514 1513 1513 1514 1509 1504 1501 1500 1500 1501 1501 1503 1504 1505 1506 1508 1509 1509 1510 1512 1512 1513 1514 1515 1515 1516 1517 1518 1518 1518 1518 1519 1519 1519 1519
1507 1506 1506 1507 1509 1508 1511 1510 1511 1513 1517 1519 1517 1517 1504 1502 1500 1498 1498 1498 1499 1500 1502 1503 1505 1506 1507 1508 1509 1510 1511 1511 1512 1512 1513 1513 1513 1513 1514 1515 1515 1516 1516 1516
1507 1506 1506 1506 1507 1507 1509 1509 1511 1513 1517 1521 1519 1521 1506 1501 1499 1495 1495 1495 1496 1498 1499 1501 1502 1503 1504 1505 1506 1507 1508 1508 1509 1509 1510 1510 1511 1511 1512 1512 1513 1513 1513 1513
1508 1506 1506 1506 1506 1507 1509 1511 1514 1518 1520 1519 1515 1519 1506 1500 1494 1492 1492 1492 1493 1495 1497 1498 1499 1500 1501 1502 1503 1503 1504 1505 1505 1505 1506 1507 1508 1508 1508 1509 1509 1509 1509 1510
1509 1507 1506 1505 1507 1508 1509 1515 1521 1519 1522 1515 1512 1514 1502 1493 1490 1489 1489 1489 1491 1492 1494 1495 1496 1497 1498 1498 1499 1500 1501 1501 1502 1502 1503 1503 1504 1505 1505 1505 1505 1505 1505 1505
1510 1510 1506 1506 1506 1507 1509 1511 1516 1517 1517 1513 1512 1509 1497 1491 1489 1488 1488 1488 1489 1490 1491 1492 1493 1494 1495 1495 1496 1497 1497 1498 1498 1499 1499 1500 1501 1501 1501 1502 1502 1502 1502 1502
1508 1508 1507 1505 1505 1506 1508 1511 1510 1517 1522 1520 1511 1504 1495 1490 1489 1488 1488 1488 1488 1488 1489 1490 1490 1491 1492 1493 1493 1494 1494 1495 1495 1495 1496 1496 1497 1497 1497 1498 1498 1498 1498 1498
1504 1511 1508 1507 1506 1506 1507 1509 1515 1517 1517 1512 1507 1504 1497 1490 1489 1488 1488 1487 1487 1487 1487 1488 1489 1489 1489 1490 1491 1491 1492 1492 1492 1492 1492 1493 1493 1494 1494 1494 1494 1494 1494 1495
1503 1510 1512 1510 1510 1508 1510 1511 1512 1515 1515 1513 1509 1500 1489 1487 1486 1487 1487 1486 1486 1486 1486 1486 1486 1486 1487 1487 1487 1487 1488 1488 1488 1488 1489 1489 1489 1490 1490 1490 1490 1490 1490 1490
1503 1509 1515 1512 1509 1509 1508 1508 1511 1511 1513 1515 1511 1500 1486 1486 1485 1485 1485 1485 1485 1484 1484 1484 1483 1483 1484 1484 1484 1484 1484 1484 1485 1485 1485 1485 1485 1485 1485 1485 1485 1485 1485 1486
1502 1508 1512 1509 1512 1512 1510 1509 1510 1511 1514 1516 1510 1497 1487 1485 1484 1484 1484 1484 1483 1483 1482 1481 1481 1481 1481 1481 1481 1481 1482 1481 1481 1481 1481 1481 1481 1481 1480 1480 1481 1481 1481 1481
1498 1505 1505 1502 1500 1504 1508 1508 1508 1509 1511 1511 1504 1492 1487 1485 1484 1483 1483 1482 1482 1481 1480 1479 1479 1478 1478 1478 1478 1478 1478 1478 1478 1477 1477 1477 1477 1476 1476 1476 1476 1476 1476 1476
1497 1504 1506 1504 1502 1503 1502 1502 1504 1504 1501 1501 1492 1491 1484 1483 1483 1482 1481 1480 1480 1479 1478 1477 1476 1475 1475 1475 1475 1474 1474 1474 1474 1473 1473 1472 1472 1472 1472 1471 1471 1471 1472 1472
1499 1504 1506 1504 1502 1501 1499 1496 1497 1497 1496 1495 1492 1487 1480 1480 1480 1479 1479 1478 1477 1476 1475 1474 1473 1472 1472 1471 1471 1471 1470 1470 1470 1469 1468 1468 1468 1467 1467 1467 1467 1467 1467 1467
1500 1504 1505 1504 1505 1500 1497 1490 1491 1492 1490 1489 1487 1481 1478 1479 1477 1476 1475 1475 1474 1473 1473 1472 1471 1470 1469 1468 1468 1467 1466 1466 1465 1465 1464 1463 1463 1462 1462 1462 1462 1461 1461 1461
1498 1501 1505 1508 1505 1500 1483 1481 1482 1484 1483 1482 1479 1476 1475 1475 1474 1473 1472 1472 1471 1470 1470 1469 1468 1467 1466 1465 1465 1464 1463 1462 1461 1460 1459 1458 1458 1457 1457 1457 1456 1456 1456 1456
1493 1498 1504 1507 1505 1495 1483 1479 1481 1482 1479 1475 1475 1473 1473 1473 1472 1470 1469 1469 1468 1468 1467 1467 1466 1464 1463 1462 1461 1460 1459 1458 1457 1456 1455 1454 1453 1452 1452 1451 1451 1451 1451 1451
1495 1496 1501 1505 1501 1492 1476 1475 1475 1479 1478 1469 1470 1470 1471 1472 1474 1469 1467 1467 1466 1466 1465 1464 1463 1461 1460 1459 1458 1457 1456 1454 1453 1452 1451 1450 1449 1448 1447 1446 1446 1446 1446 1446
1496 1498 1500 1500 1497 1484 1474 1474 1476 1480 1471 1466 1465 1466 1468 1468 1467 1466 1465 1464 1464 1463 1462 1461 1460 1458 1457 1456 1455 1454 1452 1451 1450 1448 1447 1446 1445 1444 1443 1442 1442 1442 1442 1441
1487 1492 1495 1496 1495 1481 1470 1472 1472 1467 1463 1463 1463 1463 1464 1463 1463 1462 1462 1461 1461 1460 1459 1458 1457 1456 1455 1453 1452 1450 1449 1448 1446 1445 1443 1442 1441 1440 1439 1438 1438 1438 1437 1437
1480 1478 1478 1477 1471 1465 1464 1462 1462 1462 1462 1461 1461 1461 1461 1460 1460 1459 1459 1459 1458 1457 1456 1455 1454 1453 1451 1450 1448 1447 1445 1444 1442 1441 1439 1438 1437 1436 1435 1435 1434 1433 1433 1433
1475 1473 1474 1472 1464 1462 1461 1460 1460 1460 1459 1459 1459 1459 1458 1457 1456 1456 1456 1455 1455 1454 1453 1452 1451 1449 1448 1447 1445 1443 1442 1440 1439 1437 1436 1434 1433 1432 1432 1431 1431 1430 1430 1430
1468 1470 1470 1467 1462 1460 1457 1457 1457 1457 1457 1456 1456 1456 1455 1454 1453 1453 1452 1451 1451 1450 1450 1448 1447 1445 1444 1443 1441 1440 1438 1437 1435 1434 1433 1431 1431 1429 1428 1428 1428 1428 1428 1428
1463 1464 1464 1459 1456 1457 1454 1453 1454 1454 1453 1453 1452 1451 1451 1450 1449 1449 1448 1447 1447 1446 1445 1444 1443 1442 1440 1439 1437 1436 1435 1433 1432 1431 1430 1429 1428 1427 1426 1425 1425 1425 1425 1425